Stations météo

réclame
Mon MeteoGroup
Figari, France (7780): Température de l'air & dewpoint: 15.06.2018 12:00:00 - 21.06.2018 12:00:00 (CEST)Figari, France (7780): Température de l'air 5cm: 15.06.2018 12:00:00 - 21.06.2018 12:00:00 (CEST)Figari, France (7780): Vitesse du vent & gusts: 15.06.2018 12:00:00 - 21.06.2018 12:00:00 (CEST)Figari, France (7780): Direction du vent: 15.06.2018 12:00:00 - 21.06.2018 12:00:00 (CEST)Figari, France (7780): reduced air pressure: 15.06.2018 12:00:00 - 21.06.2018 12:00:00 (CEST)Figari, France (7780): visibility: 15.06.2018 12:00:00 - 21.06.2018 12:00:00 (CEST)Figari, France (7780): Quantités de précipitations: 15.06.2018 12:00:00 - 21.06.2018 12:00:00 (CEST)
Date & Time tt [°C] td [°C] tt 5cm [°C] ff [km/h] ff [knt] fx [km/h] fx [knt] dd ppp [hPa] vv [km] rr [mm]
21.06.2018 12:00:00 28,8 20,3 42,2 16 8 27 15 S 1017,3 60 0,0
21.06.2018 11:00:00 27,3 19,6 39,2 11 6 23 13 S 1017,3 60 0,0
21.06.2018 10:00:00 26,9 20,5 34,6 8 4 17 9 S 1017,3 54 0,0
21.06.2018 09:00:00 25,1 19,9 27,3 6 3 11 6 SW 1017,6 24 0,0
21.06.2018 08:00:00 22,2 18,8 15,7 0 0 7 4 N 1017,8 38 0,0
21.06.2018 07:00:00 16,8 16,3 10,4 3 2 6 3 ESE 1017,7 18 0,0
21.06.2018 06:00:00 13,7 12,9 10,1 2 1 7 4 N 1018,0 12 0,0
21.06.2018 05:00:00 14,3 13,5 10,1 4 2 8 4 ENE 1017,7 15 0,0
21.06.2018 04:00:00 15,0 14,4 10,6 0 0 6 4 N 1017,7 13 0,0
21.06.2018 03:00:00 15,6 15,0 11,3 4 2 7 4 E 1018,1 20 0,0
21.06.2018 02:00:00 15,9 14,8 11,7 3 2 8 4 NNE 1018,1 19 0,0
21.06.2018 01:00:00 17,0 15,7 12,5 7 4 9 5 NNE 1018,3 22 0,0
21.06.2018 00:00:00 18,3 16,5 13,3 5 3 10 6 NNE 1018,6 24 0,0
20.06.2018 23:00:00 19,9 17,5 15,8 8 5 16 8 NE 1018,6 30 0,0
20.06.2018 22:00:00 21,3 18,7 17,4 10 6 17 9 NE 1018,2 31 0,0
20.06.2018 21:00:00 23,0 18,1 18,4 9 5 15 8 NE 1017,7 43 0,0
20.06.2018 20:00:00 27,0 17,8 23,7 7 4 18 10 WSW 1017,6 56 0,0
20.06.2018 19:00:00 28,3 17,8 27,1 10 5 20 11 SSW 1017,6 60 0,0
20.06.2018 18:00:00 29,5 16,0 35,2 10 5 21 11 SW 1017,3 59 0,0
20.06.2018 17:00:00 29,9 15,2 40,1 12 6 22 12 SSW 1017,4 52 0,0
20.06.2018 16:00:00 30,1 17,5 42,0 13 7 20 11 SSW 1017,7 57 0,0
20.06.2018 15:00:00 29,9 17,4 31,3 13 7 24 13 SSW 1018,0 60 0,0
20.06.2018 14:00:00 27,7 17,2 30,3 13 7 24 13 WSW 1018,3 54 0,0
20.06.2018 13:00:00 29,5 19,2 35,5 16 9 26 14 SW 1018,5 60 0,0
20.06.2018 12:00:00 29,0 18,7 39,4 12 7 24 13 SW 1018,6 57 0,0
20.06.2018 11:00:00 28,7 19,3 39,7 13 7 21 11 SSW 1018,6 41 0,0
20.06.2018 10:00:00 27,7 17,8 35,5 4 2 14 7 W 1018,5 54 0,0
20.06.2018 09:00:00 24,9 20,2 25,2 4 2 11 6 WSW 1019,0 22 0,0
20.06.2018 08:00:00 21,8 21,3 16,5 0 0 7 4 N 1018,9 0,2 0,0
20.06.2018 07:00:00 16,8 16,0 10,7 4 2 7 4 ENE 1018,4 19 0,0
20.06.2018 06:00:00 14,1 13,5 10,4 3 2 8 4 NE 1018,3 18 0,0
20.06.2018 05:00:00 14,1 13,1 10,7 3 2 9 5 S 1018,1 20 0,0
20.06.2018 04:00:00 15,0 14,0 11,1 4 2 9 5 N 1018,3 26 0,0
20.06.2018 03:00:00 15,1 14,0 11,3 3 1 9 5 N 1018,3 30 0,0
20.06.2018 02:00:00 15,9 14,6 12,1 5 3 8 5 ESE 1018,1 38 0,0
20.06.2018 01:00:00 16,6 15,0 12,2 6 3 15 8 NNE 1018,3 31 0,0
20.06.2018 00:00:00 17,1 15,3 12,4 3 1 9 5 NE 1018,1 25 0,0
19.06.2018 23:00:00 17,9 16,2 12,9 6 3 9 5 NE 1018,1 25 0,0
19.06.2018 22:00:00 19,4 16,8 14,2 5 3 9 5 NNE 1017,7 38 0,0
19.06.2018 21:00:00 22,9 17,1 17,0 4 2 11 6 SE 1017,3 43 0,0
19.06.2018 20:00:00 26,9 17,7 22,5 6 3 22 12 SSW 1016,9 44 0,0
19.06.2018 19:00:00 28,4 17,9 27,1 12 7 23 13 SSW 1016,8 50 0,0
19.06.2018 18:00:00 28,4 17,9 34,3 15 8 25 14 S 1017,0 44 0,0
19.06.2018 17:00:00 28,9 17,7 38,2 13 7 28 15 SSW 1017,4 43 0,0
19.06.2018 16:00:00 29,3 18,4 38,8 18 10 38 20 WSW 1017,7 39 0,0
19.06.2018 15:00:00 29,5 18,9 41,3 22 12 36 19 SSW 1017,6 47 0,0
19.06.2018 14:00:00 30,9 14,9 39,3 16 8 43 23 E 1017,7 46 0,0
19.06.2018 13:00:00 30,2 14,7 38,2 24 13 50 27 ENE 1017,6 43 0,0
19.06.2018 12:00:00 29,7 15,0 38,3 19 11 44 24 ENE 1017,9 51 0,0
19.06.2018 11:00:00 30,1 14,6 38,6 10 5 31 17 ESE 1017,9 58 0,0
19.06.2018 10:00:00 28,5 15,4 35,9 9 5 24 13 ESE 1017,9 47 0,0
19.06.2018 09:00:00 24,6 20,5 26,6 3 1 7 4 SSW 1018,0 27 0,0
19.06.2018 08:00:00 20,8 20,1 18,5 4 2 9 5 E 1017,8 19 0,0
19.06.2018 07:00:00 18,4 18,1 16,6 3 2 7 4 NNW 1017,6 0,3 0,0
19.06.2018 06:00:00 17,7 17,4 14,6 3 2 6 4 NNW 1017,2 0,7 0,0
19.06.2018 05:00:00 17,0 16,4 14,8 4 2 10 5 NNE 1016,9 10 0,0
19.06.2018 04:00:00 16,5 16,2 11,3 4 2 10 5 NE 1016,9 14 0,0
19.06.2018 03:00:00 14,9 14,1 11,3 5 3 9 5 NE 1016,7 14 0,0
19.06.2018 02:00:00 15,0 14,0 11,6 3 2 7 4 NNW 1016,4 26 0,0
19.06.2018 01:00:00 16,2 15,2 12,2 3 1 9 5 NNE 1016,6 26 0,0
19.06.2018 00:00:00 17,2 16,2 12,9 4 2 - - NE 1016,6 17 0,0
18.06.2018 23:00:00 18,1 16,8 13,6 - - - - - 1016,5 17 0,0
18.06.2018 22:00:00 19,3 17,6 14,7 - - - - - 1016,0 21 0,0
18.06.2018 21:00:00 22,6 18,6 17,6 - - - - - 1015,3 31 0,0
18.06.2018 20:00:00 25,5 19,6 22,9 - - - - - 1015,0 36 0,0
18.06.2018 19:00:00 26,1 18,5 24,9 - - - - - 1014,7 41 0,0
18.06.2018 18:00:00 28,2 19,2 34,7 - - - - - 1014,6 42 0,0
18.06.2018 17:00:00 28,3 18,1 38,9 - - - - - 1014,6 56 0,0
18.06.2018 16:00:00 28,1 18,5 38,1 - - - - - 1014,8 35 0,0
18.06.2018 15:00:00 27,5 17,9 40,1 - - - - - 1015,1 33 0,0
18.06.2018 14:00:00 27,0 18,3 39,3 - - - - - 1015,4 27 0,0
18.06.2018 13:00:00 26,5 19,4 38,7 - - - - - 1015,6 26 0,0
18.06.2018 12:00:00 24,9 18,8 36,8 - - - - - 1015,9 24 0,0
18.06.2018 11:00:00 24,6 18,5 33,5 - - - - - 1015,6 24 0,0
18.06.2018 10:00:00 23,6 18,3 28,5 - - - - - 1015,7 24 0,0
18.06.2018 09:00:00 22,8 17,9 24,6 - - - - - 1015,7 25 0,0
18.06.2018 08:00:00 22,4 17,7 20,0 - - - - - 1015,2 29 0,0
18.06.2018 07:00:00 20,2 17,8 18,0 - - - - - 1014,9 28 0,0
18.06.2018 06:00:00 19,1 17,9 14,3 - - - - - 1015,1 21 0,0
18.06.2018 05:00:00 17,5 16,9 12,6 - - - - - 1014,7 14 0,0
18.06.2018 04:00:00 16,9 15,9 12,3 - - - - - 1014,7 14 0,0
18.06.2018 03:00:00 17,4 16,1 13,1 - - - - - 1015,3 16 0,0
18.06.2018 02:00:00 18,1 16,1 14,7 - - - - - 1015,7 19 0,0
18.06.2018 01:00:00 19,3 16,5 17,3 - - - - - 1015,8 27 0,0
18.06.2018 00:00:00 19,4 16,8 17,5 - - - - - 1015,8 24 0,0
17.06.2018 23:00:00 19,8 17,0 18,3 - - - - - 1015,2 25 0,0
17.06.2018 22:00:00 20,0 17,4 18,6 - - - - - 1015,1 24 0,0
17.06.2018 21:00:00 20,2 17,4 18,9 - - - - - 1014,8 27 0,0
17.06.2018 20:00:00 21,7 17,7 20,7 - - - - - 1014,6 32 0,0
17.06.2018 19:00:00 23,3 18,0 22,8 28 15 50 27 WSW 1014,4 23 0,0
17.06.2018 18:00:00 24,1 18,1 28,4 29 16 48 26 SW 1014,4 23 0,0
17.06.2018 17:00:00 25,2 18,6 32,5 27 15 45 24 SSW 1014,6 21 0,0
17.06.2018 16:00:00 25,3 18,5 33,4 29 16 43 23 SW 1015,0 24 0,0
17.06.2018 15:00:00 25,6 19,3 33,1 29 16 47 25 SW 1014,9 28 0,0
17.06.2018 14:00:00 25,8 19,7 33,9 23 12 42 23 SSW 1015,2 34 0,0
17.06.2018 13:00:00 24,9 18,8 33,0 25 14 40 22 SW 1015,6 41 0,0
17.06.2018 12:00:00 24,6 19,0 29,1 20 11 36 19 SW 1015,6 39 0,0
17.06.2018 11:00:00 23,6 18,0 30,3 18 10 34 18 SSW 1015,4 34 0,0
17.06.2018 10:00:00 24,1 18,5 25,8 18 10 29 16 SW 1015,3 35 0,0
17.06.2018 09:00:00 22,8 18,1 24,8 15 8 24 13 SW 1015,2 38 0,0
17.06.2018 08:00:00 20,3 18,1 16,3 2 1 6 3 WNW 1014,7 29 0,0
17.06.2018 07:00:00 15,8 15,5 9,4 4 2 6 3 NNE 1014,4 9 0,0
17.06.2018 06:00:00 12,7 12,1 9,1 2 1 6 4 N 1014,5 7 0,0
17.06.2018 05:00:00 13,3 12,5 9,6 4 2 8 4 NNE 1014,2 7 0,0
17.06.2018 04:00:00 13,8 13,0 10,2 5 3 7 4 NNE 1014,3 6 0,0
17.06.2018 03:00:00 15,4 14,3 11,2 3 2 13 7 W 1014,4 8 0,0
17.06.2018 02:00:00 17,8 16,1 12,9 5 3 22 12 SSW 1014,3 15 0,0
17.06.2018 01:00:00 19,2 17,3 16,8 12 7 28 15 SW 1014,2 29 0,0
17.06.2018 00:00:00 19,7 17,7 17,7 15 8 29 15 SSW 1014,2 28 0,0
16.06.2018 23:00:00 19,9 17,9 18,1 13 7 33 18 SW 1013,7 27 0,0
16.06.2018 22:00:00 20,5 18,3 18,9 19 10 32 17 SW 1013,2 27 0,0
16.06.2018 21:00:00 22,6 17,3 21,2 22 12 37 20 WSW 1012,5 51 0,0
16.06.2018 20:00:00 24,2 17,4 23,1 23 13 40 22 SW 1012,1 47 0,0
16.06.2018 19:00:00 24,3 18,2 24,1 23 12 36 20 WSW 1012,0 33 0,0
16.06.2018 18:00:00 25,2 19,1 26,2 25 13 43 23 WSW 1012,1 57 0,0
16.06.2018 17:00:00 25,1 19,2 27,9 30 16 42 23 WSW 1012,3 51 0,0
16.06.2018 16:00:00 24,1 19,2 26,7 21 12 34 18 SSW 1012,7 58 0,0
16.06.2018 15:00:00 25,6 19,0 35,9 18 10 32 18 SSW 1013,0 27 0,0
16.06.2018 14:00:00 25,7 19,1 29,2 21 11 32 17 SSW 1013,1 28 0,0
16.06.2018 13:00:00 25,5 18,7 33,2 18 10 35 19 SSW 1013,3 29 0,0
16.06.2018 12:00:00 24,3 18,5 29,3 23 12 38 21 SSW 1013,4 29 0,0
16.06.2018 11:00:00 23,8 19,1 26,0 23 13 35 19 SW 1013,2 32 0,0
16.06.2018 10:00:00 23,1 19,3 26,6 21 12 31 17 SW 1013,0 37 0,0
16.06.2018 09:00:00 22,1 19,3 26,8 13 7 - - SSW 1012,9 43 0,0
16.06.2018 08:00:00 19,6 18,3 15,4 - - - - - 1012,8 39 0,0
16.06.2018 07:00:00 15,0 14,7 8,8 - - - - - 1012,7 17 0,0
16.06.2018 06:00:00 12,5 12,2 8,5 - - - - - 1012,5 7 0,0
16.06.2018 05:00:00 12,4 11,9 8,7 - - - - - 1012,4 9 0,0
16.06.2018 04:00:00 13,0 12,5 9,2 3 2 9 5 N 1012,4 10 0,0
16.06.2018 03:00:00 13,4 12,9 9,3 6 3 9 5 NNE 1012,3 14 0,0
16.06.2018 02:00:00 13,8 13,3 9,7 5 3 7 4 NE 1012,3 14 0,0
16.06.2018 01:00:00 14,1 13,5 10,4 6 3 8 4 NNE 1012,4 15 0,0
16.06.2018 00:00:00 15,2 14,2 11,2 3 2 10 5 SE 1012,3 27 0,0
15.06.2018 23:00:00 16,3 15,2 14,1 8 5 14 8 NE 1012,0 40 0,0
15.06.2018 22:00:00 18,4 16,0 15,2 4 2 19 11 NE 1011,5 32 0,0
15.06.2018 21:00:00 20,1 15,1 16,2 11 6 31 17 WSW 1011,3 60 0,0
15.06.2018 20:00:00 21,5 16,5 18,9 15 8 20 11 WSW 1011,2 60 0,0
15.06.2018 19:00:00 22,2 20,1 20,4 13 7 19 11 SW 1010,7 33 0,0
15.06.2018 18:00:00 21,2 19,5 20,6 3 2 8 4 WSW 1011,0 31 0,0
15.06.2018 17:00:00 20,8 19,5 19,0 5 3 20 11 SE 1011,3 20 3,0
15.06.2018 16:00:00 21,4 17,8 20,2 11 6 21 11 ENE 1011,6 41 0,0
15.06.2018 15:00:00 22,1 20,4 19,6 6 3 14 7 E 1011,3 40 1,0
15.06.2018 14:00:00 20,2 18,5 19,1 10 5 28 15 WSW 1011,5 1,6 12,0
15.06.2018 13:00:00 22,9 16,9 21,8 20 11 28 15 WSW 1011,2 60 0,0
15.06.2018 12:00:00 24,5 17,7 29,4 17 9 39 21 WSW 1010,9 40 0,0

tt = Température de l'air
td = dewpoint
tt 5cm = Température de l'air 5cm
ff = Vitesse du vent
fx = gusts
dd = Direction du vent
ppp = reduced air pressure
vv = visibility
rr = Quantités de précipitations

stations d'obs. à proximité